Location: Unspecified
(43.4680°N, 87.1740°E)
Time: 03:56:10
(UTC+00:00)

Cosmos 1937 Rocket - Pass Details

Date: 17 April 2021
Orbit: 746 x 780 km, 74.0° (Epoch: 16 May)

Event Time Altitude Azimuth Distance (km) Brightness Sun altitude
Exits shadow 22:17:42 17° 245° (WSW) 1,843 4.8 -12.0°
Maximum altitude 22:20:57 32° 299° (WNW) 1,267 4.4 -11.5°
Drops below altitude 10° 22:25:33 10° 3° (N) 2,272 6.3 -10.8°
Sets 22:28:10 0° 13° (NNE) 3,201 7.3 -10.3°
